Location: Newark
(34.0131°N, 4.3314°W)
Time: 23:42:22
(UTC+00:00)

Transit 2A Rocket - Pass Details

Date: 22 October 2019
Orbit: 594 x 909 km, 66.7° (Epoch: 16 November)

Event Time Altitude Azimuth Distance (km) Brightness Sun altitude
Rises 12:27:45 0° 356° (N) 2,838 7.5 44.5°
Reaches altitude 10° 12:31:41 10° 33° (NNE) 1,934 6.8 44.4°
Maximum altitude 12:32:59 11° 50° (NE) 1,862 6.8 44.3°
Drops below altitude 10° 12:34:18 10° 68° (ENE) 1,946 7.0 44.3°
Sets 12:38:17 0° 104° (ESE) 2,886 8.0 44.1°
